Year,Month,Day,Hour,Minute,Value (Times are PST for temperature in C)
2011,04,20,10,31,6.40
2011,04,20,10,32,6.40
2011,04,20,10,33,6.40
2011,04,20,10,34,6.40
2011,04,20,10,35,6.50
2011,04,20,10,36,6.50
2011,04,20,10,37,6.50
2011,04,20,10,38,6.60
2011,04,20,10,39,6.60
2011,04,20,10,40,6.50
2011,04,20,10,41,6.40
2011,04,20,10,42,6.40
2011,04,20,10,43,6.40
2011,04,20,10,44,6.30
2011,04,20,10,45,6.30
2011,04,20,10,46,6.30
2011,04,20,10,47,6.30
2011,04,20,10,48,6.30
2011,04,20,10,49,6.30
2011,04,20,10,50,6.30
2011,04,20,10,51,6.40
2011,04,20,10,52,6.40
2011,04,20,10,53,6.40
2011,04,20,10,54,6.40
2011,04,20,10,55,6.40
2011,04,20,10,56,6.40
2011,04,20,10,57,6.40
2011,04,20,10,58,6.40
2011,04,20,10,59,6.40
2011,04,20,11,00,6.50
2011,04,20,11,01,6.50
2011,04,20,11,02,6.50
2011,04,20,11,03,6.50
2011,04,20,11,04,6.50
2011,04,20,11,05,6.60
2011,04,20,11,06,6.60
2011,04,20,11,07,6.60
2011,04,20,11,08,6.70
2011,04,20,11,09,6.70
2011,04,20,11,10,6.70
2011,04,20,11,11,6.80
2011,04,20,11,12,6.80
2011,04,20,11,13,6.80
2011,04,20,11,14,6.80
2011,04,20,11,15,6.80
2011,04,20,11,16,6.80
2011,04,20,11,17,6.80
2011,04,20,11,18,6.80
2011,04,20,11,19,6.80
2011,04,20,11,20,6.70
2011,04,20,11,21,6.70
2011,04,20,11,22,6.70
2011,04,20,11,23,6.80
2011,04,20,11,24,6.80
2011,04,20,11,25,6.90
2011,04,20,11,26,6.90
2011,04,20,11,27,6.90
2011,04,20,11,28,6.90
2011,04,20,11,29,6.90
2011,04,20,11,30,6.90
2011,04,20,11,31,6.80
2011,04,20,11,32,6.80
2011,04,20,11,33,6.90
2011,04,20,11,34,6.90
2011,04,20,11,35,6.80
2011,04,20,11,36,6.80
2011,04,20,11,37,6.80
2011,04,20,11,38,6.70
2011,04,20,11,39,6.70
2011,04,20,11,40,6.70
2011,04,20,11,41,6.70
2011,04,20,11,42,6.70
2011,04,20,11,43,6.70
2011,04,20,11,44,6.70
2011,04,20,11,45,6.80
2011,04,20,11,46,6.90
2011,04,20,11,47,6.90
2011,04,20,11,48,7.00
2011,04,20,11,49,7.00
2011,04,20,11,50,7.10
2011,04,20,11,51,7.10
2011,04,20,11,52,7.10
2011,04,20,11,53,7.00
2011,04,20,11,54,7.00
2011,04,20,11,55,7.00
2011,04,20,11,56,7.00
2011,04,20,11,57,7.00
2011,04,20,11,58,7.00
2011,04,20,11,59,7.00
2011,04,20,12,00,7.00
2011,04,20,12,01,6.90
2011,04,20,12,02,6.90
2011,04,20,12,03,6.90
2011,04,20,12,04,6.90
2011,04,20,12,05,6.90
2011,04,20,12,06,6.90
2011,04,20,12,07,6.90
2011,04,20,12,08,6.90
2011,04,20,12,09,6.90
2011,04,20,12,10,7.00
2011,04,20,12,11,7.10
2011,04,20,12,12,7.20
2011,04,20,12,13,7.20
2011,04,20,12,14,7.20
2011,04,20,12,15,7.30
2011,04,20,12,16,7.30
2011,04,20,12,17,7.30
2011,04,20,12,18,7.30
2011,04,20,12,19,7.30
2011,04,20,12,20,7.40
2011,04,20,12,21,7.40
2011,04,20,12,22,7.40
2011,04,20,12,23,7.30
2011,04,20,12,24,7.30
2011,04,20,12,25,7.30
2011,04,20,12,26,7.30
2011,04,20,12,27,7.20
2011,04,20,12,28,7.20
2011,04,20,12,29,7.20
2011,04,20,12,30,7.20
2011,04,20,12,31,7.20
2011,04,20,12,32,7.20
2011,04,20,12,33,7.10
2011,04,20,12,34,7.10
2011,04,20,12,35,7.00
2011,04,20,12,36,7.00
2011,04,20,12,37,7.00
2011,04,20,12,38,7.00
2011,04,20,12,39,7.10
2011,04,20,12,40,7.10
2011,04,20,12,41,7.10
2011,04,20,12,42,7.10
2011,04,20,12,43,7.00
2011,04,20,12,44,6.90
2011,04,20,12,45,6.80
2011,04,20,12,46,6.80
2011,04,20,12,47,6.80
2011,04,20,12,48,6.80
2011,04,20,12,49,6.80
2011,04,20,12,50,6.80
2011,04,20,12,51,6.70
2011,04,20,12,52,6.70
2011,04,20,12,53,6.70
2011,04,20,12,54,6.70
2011,04,20,12,55,6.70
2011,04,20,12,56,6.70
2011,04,20,12,57,6.70
2011,04,20,12,58,6.70
2011,04,20,12,59,6.70
2011,04,20,13,00,6.70
2011,04,20,13,01,6.70
2011,04,20,13,02,6.60
2011,04,20,13,03,6.60
2011,04,20,13,04,6.50
2011,04,20,13,05,6.40
2011,04,20,13,06,6.40
2011,04,20,13,07,6.40
2011,04,20,13,08,6.50
2011,04,20,13,09,6.50
2011,04,20,13,10,6.60
2011,04,20,13,11,6.60
2011,04,20,13,12,6.60
2011,04,20,13,13,6.60
2011,04,20,13,14,6.60
2011,04,20,13,15,6.60
2011,04,20,13,16,6.70
2011,04,20,13,17,6.70
2011,04,20,13,18,6.70
2011,04,20,13,19,6.70
2011,04,20,13,20,6.70
2011,04,20,13,21,6.70
2011,04,20,13,22,6.70
2011,04,20,13,23,6.80
2011,04,20,13,24,6.80
2011,04,20,13,25,6.80
2011,04,20,13,26,6.90
2011,04,20,13,27,6.90
2011,04,20,13,28,6.90
2011,04,20,13,29,6.90
2011,04,20,13,30,6.90
2011,04,20,13,31,6.80
2011,04,20,13,32,6.80
2011,04,20,13,33,6.80
2011,04,20,13,34,6.80
2011,04,20,13,35,6.80
2011,04,20,13,36,6.80
2011,04,20,13,37,6.90
2011,04,20,13,38,6.90
2011,04,20,13,39,6.90
2011,04,20,13,40,6.90
2011,04,20,13,41,6.90
2011,04,20,13,42,6.90
2011,04,20,13,43,6.80
2011,04,20,13,44,6.80
2011,04,20,13,45,6.80
2011,04,20,13,46,6.80
2011,04,20,13,47,6.80
2011,04,20,13,48,6.80
2011,04,20,13,49,6.80
2011,04,20,13,50,6.80
2011,04,20,13,51,6.80
2011,04,20,13,52,6.80
2011,04,20,13,53,6.90
2011,04,20,13,54,6.90
2011,04,20,13,55,6.90
2011,04,20,13,56,7.00
2011,04,20,13,57,7.00
2011,04,20,13,58,7.00
2011,04,20,13,59,7.10
2011,04,20,14,00,7.10
2011,04,20,14,01,7.10
2011,04,20,14,02,7.20
2011,04,20,14,03,7.20
2011,04,20,14,04,7.20
2011,04,20,14,05,7.20
2011,04,20,14,06,7.20
2011,04,20,14,07,7.20
2011,04,20,14,08,7.20
2011,04,20,14,09,7.20
2011,04,20,14,10,7.20
2011,04,20,14,11,7.30
2011,04,20,14,12,7.30
2011,04,20,14,13,7.40
2011,04,20,14,14,7.40
2011,04,20,14,15,7.50
2011,04,20,14,16,7.50
2011,04,20,14,17,7.60
2011,04,20,14,18,7.60
2011,04,20,14,19,7.60
2011,04,20,14,20,7.60
2011,04,20,14,21,7.60
2011,04,20,14,22,7.60
2011,04,20,14,23,7.60
2011,04,20,14,24,7.60
2011,04,20,14,25,7.60
2011,04,20,14,26,7.60
2011,04,20,14,27,7.70
2011,04,20,14,28,7.70
2011,04,20,14,29,7.70
2011,04,20,14,30,7.70
2011,04,20,14,31,7.70
2011,04,20,14,32,7.70
2011,04,20,14,33,7.70
2011,04,20,14,34,7.60
2011,04,20,14,35,7.60
2011,04,20,14,36,7.50
2011,04,20,14,37,7.50
2011,04,20,14,38,7.40
2011,04,20,14,39,7.40
2011,04,20,14,40,7.40
2011,04,20,14,41,7.40
2011,04,20,14,42,7.30
2011,04,20,14,43,7.30
2011,04,20,14,44,7.30
2011,04,20,14,45,7.30
2011,04,20,14,46,7.30
2011,04,20,14,47,7.40
2011,04,20,14,48,7.40
2011,04,20,14,49,7.40
2011,04,20,14,50,7.30
2011,04,20,14,51,7.30
2011,04,20,14,52,7.30
2011,04,20,14,53,7.30
2011,04,20,14,54,7.30
2011,04,20,14,55,7.30
2011,04,20,14,56,7.30
2011,04,20,14,57,7.30
2011,04,20,14,58,7.30
2011,04,20,14,59,7.20
2011,04,20,15,00,7.20
2011,04,20,15,01,7.20
2011,04,20,15,02,7.20
2011,04,20,15,03,7.20
2011,04,20,15,04,7.20
2011,04,20,15,05,7.10
2011,04,20,15,06,7.10
2011,04,20,15,07,7.10
2011,04,20,15,08,7.00
2011,04,20,15,09,7.00
2011,04,20,15,10,7.00
2011,04,20,15,11,7.00
2011,04,20,15,12,6.90
2011,04,20,15,13,6.80
2011,04,20,15,14,6.80
2011,04,20,15,15,6.80
2011,04,20,15,16,6.70
2011,04,20,15,17,6.70
2011,04,20,15,18,6.70
2011,04,20,15,19,6.70
2011,04,20,15,20,6.60
2011,04,20,15,21,6.60
2011,04,20,15,22,6.60
2011,04,20,15,23,6.60
2011,04,20,15,24,6.60
2011,04,20,15,25,6.60
2011,04,20,15,26,6.60
2011,04,20,15,27,6.60
2011,04,20,15,28,6.60
2011,04,20,15,29,6.60
2011,04,20,15,30,6.50
2011,04,20,15,31,6.50
2011,04,20,15,32,6.40
2011,04,20,15,33,6.30
2011,04,20,15,34,6.30
2011,04,20,15,35,6.20
2011,04,20,15,36,6.10
2011,04,20,15,37,6.10
2011,04,20,15,38,6.00
2011,04,20,15,39,6.00
2011,04,20,15,40,6.00
2011,04,20,15,41,6.00
2011,04,20,15,42,6.00
2011,04,20,15,43,6.00
2011,04,20,15,44,6.00
2011,04,20,15,45,6.00
2011,04,20,15,46,6.00
2011,04,20,15,47,6.00
2011,04,20,15,48,6.00
2011,04,20,15,49,5.90
2011,04,20,15,50,5.90
2011,04,20,15,51,5.90
2011,04,20,15,52,5.90
2011,04,20,15,53,5.90
2011,04,20,15,54,5.80
2011,04,20,15,55,5.80
2011,04,20,15,56,5.80
2011,04,20,15,57,5.80
2011,04,20,15,58,5.80
2011,04,20,15,59,5.80
2011,04,20,16,00,5.90
2011,04,20,16,01,5.90
2011,04,20,16,02,5.90
2011,04,20,16,03,5.90
2011,04,20,16,04,5.90
2011,04,20,16,05,5.80
2011,04,20,16,06,5.80
2011,04,20,16,07,5.80
2011,04,20,16,08,5.80
2011,04,20,16,09,5.90
2011,04,20,16,10,5.90
2011,04,20,16,11,5.90
2011,04,20,16,12,5.90
2011,04,20,16,13,6.00
2011,04,20,16,14,6.00
2011,04,20,16,15,6.00
2011,04,20,16,16,6.00
2011,04,20,16,17,6.00
2011,04,20,16,18,6.10
2011,04,20,16,19,6.10
2011,04,20,16,20,6.10
2011,04,20,16,21,6.10
2011,04,20,16,22,6.10
2011,04,20,16,23,6.00
2011,04,20,16,24,6.00
2011,04,20,16,25,6.10
2011,04,20,16,26,6.10
2011,04,20,16,27,6.10
2011,04,20,16,28,6.10
2011,04,20,16,29,6.10
2011,04,20,16,30,6.10
2011,04,20,16,31,6.00
2011,04,20,16,32,6.00
2011,04,20,16,33,6.00
2011,04,20,16,34,5.90
2011,04,20,16,35,5.90
2011,04,20,16,36,5.90
2011,04,20,16,37,5.90
2011,04,20,16,38,5.90
2011,04,20,16,39,5.80
2011,04,20,16,40,5.80
2011,04,20,16,41,5.80
2011,04,20,16,42,5.80
2011,04,20,16,43,5.80
2011,04,20,16,44,5.80
2011,04,20,16,45,5.80
2011,04,20,16,46,5.80
2011,04,20,16,47,5.70
2011,04,20,16,48,5.80
2011,04,20,16,49,5.80
2011,04,20,16,50,5.80
2011,04,20,16,51,5.80
2011,04,20,16,52,5.80
2011,04,20,16,53,5.70
2011,04,20,16,54,5.80
2011,04,20,16,55,5.70
2011,04,20,16,56,5.70
2011,04,20,16,57,5.70
2011,04,20,16,58,5.70
2011,04,20,16,59,5.70
2011,04,20,17,00,5.70
2011,04,20,17,01,5.80
2011,04,20,17,02,5.80
2011,04,20,17,03,5.80
2011,04,20,17,04,5.80
2011,04,20,17,05,5.80
2011,04,20,17,06,5.80
2011,04,20,17,07,5.80
2011,04,20,17,08,5.80
2011,04,20,17,09,5.80
2011,04,20,17,10,5.80
2011,04,20,17,11,5.80
2011,04,20,17,12,5.80
2011,04,20,17,13,5.80
2011,04,20,17,14,5.70
2011,04,20,17,15,5.70
2011,04,20,17,16,5.60
2011,04,20,17,17,5.60
2011,04,20,17,18,5.50
2011,04,20,17,19,5.50
2011,04,20,17,20,5.50
2011,04,20,17,21,5.50
2011,04,20,17,22,5.50
2011,04,20,17,23,5.50
2011,04,20,17,24,5.40
2011,04,20,17,25,5.40
2011,04,20,17,26,5.40
2011,04,20,17,27,5.40
2011,04,20,17,28,5.30
2011,04,20,17,29,5.30
2011,04,20,17,30,5.30
2011,04,20,17,31,5.30
2011,04,20,17,32,5.30
2011,04,20,17,33,5.20
2011,04,20,17,34,5.20
2011,04,20,17,35,5.20
2011,04,20,17,36,5.20
2011,04,20,17,37,5.20
2011,04,20,17,38,5.30
2011,04,20,17,39,5.30
2011,04,20,17,40,5.30
2011,04,20,17,41,5.30
2011,04,20,17,42,5.30
2011,04,20,17,43,5.30
2011,04,20,17,44,5.20
2011,04,20,17,45,5.20
2011,04,20,17,46,5.20
2011,04,20,17,47,5.20
2011,04,20,17,48,5.20
2011,04,20,17,49,5.20
2011,04,20,17,50,5.20
2011,04,20,17,51,5.20
2011,04,20,17,52,5.20
2011,04,20,17,53,5.30
2011,04,20,17,54,5.30
2011,04,20,17,55,5.30
2011,04,20,17,56,5.30
2011,04,20,17,57,5.30
2011,04,20,17,58,5.30
2011,04,20,17,59,5.30
2011,04,20,18,00,5.30
2011,04,20,18,01,5.30
2011,04,20,18,02,5.30
2011,04,20,18,03,5.30
2011,04,20,18,04,5.20
2011,04,20,18,05,5.20
2011,04,20,18,06,5.20
2011,04,20,18,07,5.20
2011,04,20,18,08,5.20
2011,04,20,18,09,5.20
2011,04,20,18,10,5.20
2011,04,20,18,11,5.20
2011,04,20,18,12,5.20
2011,04,20,18,13,5.10
2011,04,20,18,14,5.10
2011,04,20,18,15,5.10
2011,04,20,18,16,5.10
2011,04,20,18,17,5.20
2011,04,20,18,18,5.20
2011,04,20,18,19,5.20
2011,04,20,18,20,5.20
2011,04,20,18,21,5.20
2011,04,20,18,22,5.20
2011,04,20,18,23,5.20
2011,04,20,18,24,5.20
2011,04,20,18,25,5.20
2011,04,20,18,26,5.30
2011,04,20,18,27,5.30
2011,04,20,18,28,5.30
2011,04,20,18,29,5.30
2011,04,20,18,30,5.30
2011,04,20,18,31,5.30
2011,04,20,18,32,5.30
2011,04,20,18,33,5.30
2011,04,20,18,34,5.30
2011,04,20,18,35,5.30
2011,04,20,18,36,5.30
2011,04,20,18,37,5.20
2011,04,20,18,38,5.20
2011,04,20,18,39,5.20
2011,04,20,18,40,5.20
2011,04,20,18,41,5.30
2011,04,20,18,42,5.30
2011,04,20,18,43,5.30
2011,04,20,18,44,5.30
2011,04,20,18,45,5.20
2011,04,20,18,46,5.20
2011,04,20,18,47,5.20
2011,04,20,18,48,5.20
2011,04,20,18,49,5.20
2011,04,20,18,50,5.20
2011,04,20,18,51,5.20
2011,04,20,18,52,5.20
2011,04,20,18,53,5.20
2011,04,20,18,54,5.20
2011,04,20,18,55,5.20
2011,04,20,18,56,5.20
2011,04,20,18,57,5.20
2011,04,20,18,58,5.20
2011,04,20,18,59,5.20
2011,04,20,19,00,5.20
2011,04,20,19,01,5.20
2011,04,20,19,02,5.20
2011,04,20,19,03,5.30
2011,04,20,19,04,5.30
2011,04,20,19,05,5.30
2011,04,20,19,06,5.30
2011,04,20,19,07,5.30
2011,04,20,19,08,5.30
2011,04,20,19,09,5.40
2011,04,20,19,10,5.40
2011,04,20,19,11,5.40
2011,04,20,19,12,5.40
2011,04,20,19,13,5.40
2011,04,20,19,14,5.40
2011,04,20,19,15,5.30
2011,04,20,19,16,5.30
2011,04,20,19,17,5.30
2011,04,20,19,18,5.30
2011,04,20,19,19,5.30
2011,04,20,19,20,5.30
2011,04,20,19,21,5.30
2011,04,20,19,22,5.30
2011,04,20,19,23,5.30
2011,04,20,19,24,5.30
2011,04,20,19,25,5.30
2011,04,20,19,26,5.30
2011,04,20,19,27,5.30
2011,04,20,19,28,5.30
2011,04,20,19,29,5.30
2011,04,20,19,30,5.30
2011,04,20,19,31,5.30
2011,04,20,19,32,5.30
2011,04,20,19,33,5.30
